Mansfield, OH

3:57 AM EDT on March 29, 2017 (GMT -0400)
Mansfield Lahm Regional

Weather History for KMFD - October, 2012

Change the Weather History Date:

Sunday, October 14, 2012

  Actual Average Record
Temperature  
Mean Temperature 68 °F 52 °F  
Max Temperature 75 °F 62 °F 83 °F (1989)
Min Temperature 60 °F 42 °F 23 °F (1957)
Degree Days  
Heating Degree Days 0 13  
Month to date heating degree days 188 154  
Since 1 July heating degree days 349 304  
Cooling Degree Days 3 0  
Month to date cooling degree days 3 5  
Year to date cooling degree days 950 630  
Growing Degree Days 18 (Base 50)    
Moisture  
Dew Point 57 °F    
Average Humidity 72    
Maximum Humidity 87    
Minimum Humidity 57    
Precipitation  
Precipitation 0.09 in 0.09 in 0.81 in (2003)
Month to date precipitation 2.43 1.33  
Year to date precipitation 30.61 35.48  
Snow  
Snow 0.00 in 0.10 in - ()
Month to date snowfall 0.0 0.1  
Since 1 July snowfall 0.0 0.1  
Since 1 September snowfall 0.0 0.1  
Snow Depth 0.00 in    
Sea Level Pressure  
Sea Level Pressure 29.85 in    
Wind  
Wind Speed 22 mph (SSW)    
Max Wind Speed 37 mph    
Max Gust Speed 48 mph    
Visibility 10 miles    
Events Rain    
T = Trace of Precipitation, MM = Missing Value Source: NWS Daily Summary

Daily Weather History Graph

Daily Weather History Graph

Search for Another Location

Airport or City:

Trip Planner

Search our weather history database for the weather conditions in past years. The results will help you decide how hot, cold, wet, or windy it might be!

Date:

Astronomy

Oct. 14, 2012 Rise Set
Actual Time 7:40 AM EDT 6:50 PM EDT
Civil Twilight 7:13 AM EDT 7:18 PM EDT
Nautical Twilight 6:41 AM EDT 7:49 PM EDT
Astronomical Twilight 6:09 AM EDT 8:21 PM EDT
Moon 6:38 AM EDT (10/14) 6:09 PM EDT (10/14)
Length of Visible Light 12h 04m
Length of Day
11h 09m
Waning Crescent, 1% of the Moon is Illuminated
Oct 14
Waning Crescent
Oct 15
New
Oct 21
First Quarter
Oct 29
Full
Nov 6
Last Quarter

Hourly Weather History & Observations

Time (EDT) Temp. Dew Point Humidity Pressure Visibility Wind Dir Wind Speed Gust Speed Precip Events Conditions
12:52 AM 66.2 °F 57.2 °F 73% 30.01 in 10.0 mi SSW 20.7 mph 26.5 mph N/A   Overcast
1:52 AM 66.0 °F 57.9 °F 75% 29.99 in 10.0 mi SSW 19.6 mph 29.9 mph N/A   Overcast
2:52 AM 64.9 °F 57.0 °F 75% 29.98 in 10.0 mi SSW 19.6 mph 26.5 mph N/A   Scattered Clouds
3:52 AM 64.0 °F 57.0 °F 78% 29.97 in 10.0 mi SSW 18.4 mph 26.5 mph N/A   Clear
4:52 AM 64.9 °F 57.0 °F 75% 29.97 in 10.0 mi SSW 18.4 mph 27.6 mph N/A   Overcast
5:52 AM 64.0 °F 57.0 °F 78% 29.97 in 10.0 mi South 18.4 mph 25.3 mph N/A   Mostly Cloudy
6:52 AM 64.0 °F 57.0 °F 78% 29.97 in 10.0 mi South 18.4 mph 24.2 mph N/A   Mostly Cloudy
7:31 AM 64.4 °F 55.4 °F 73% 29.99 in 10.0 mi SSW 19.6 mph 27.6 mph N/A   Overcast
7:52 AM 64.0 °F 55.9 °F 75% 29.97 in 10.0 mi SSW 19.6 mph 32.2 mph N/A   Overcast
8:43 AM 64.4 °F 55.4 °F 73% 29.96 in 10.0 mi South 18.4 mph 29.9 mph N/A   Scattered Clouds
8:52 AM 64.9 °F 55.9 °F 73% 29.95 in 10.0 mi South 18.4 mph 29.9 mph N/A   Clear
9:42 AM 66.2 °F 55.4 °F 68% 29.94 in 10.0 mi South 23.0 mph 32.2 mph N/A   Mostly Cloudy
9:52 AM 66.9 °F 55.9 °F 68% 29.93 in 10.0 mi South 26.5 mph 32.2 mph N/A   Mostly Cloudy
10:23 AM 68.0 °F 55.4 °F 64% 29.94 in 10.0 mi South 24.2 mph 33.4 mph N/A   Scattered Clouds
10:52 AM 66.9 °F 55.9 °F 68% 29.91 in 10.0 mi South 25.3 mph 33.4 mph N/A   Mostly Cloudy
11:52 AM 70.0 °F 55.9 °F 61% 29.87 in 10.0 mi South 20.7 mph 28.8 mph N/A   Partly Cloudy
12:52 PM 69.1 °F 55.9 °F 63% 29.83 in 10.0 mi South 21.9 mph 33.4 mph N/A   Scattered Clouds
1:52 PM 73.0 °F 57.0 °F 57% 29.78 in 10.0 mi South 23.0 mph 35.7 mph N/A   Partly Cloudy
2:52 PM 72.0 °F 57.0 °F 59% 29.77 in 10.0 mi SSW 29.9 mph 41.4 mph N/A   Overcast
3:52 PM 71.1 °F 57.0 °F 61% 29.74 in 10.0 mi South 25.3 mph 32.2 mph 0.00 in Rain Light Rain
4:52 PM 64.9 °F 61.0 °F 87% 29.73 in 5.0 mi South 21.9 mph 31.1 mph 0.03 in Rain Light Rain
5:52 PM 64.9 °F 60.1 °F 84% 29.71 in 10.0 mi South 19.6 mph 26.5 mph 0.00 in   Overcast
6:52 PM 64.0 °F 61.0 °F 90% 29.68 in 10.0 mi South 13.8 mph 23.0 mph 0.04 in Rain Light Rain
7:52 PM 64.9 °F 59.0 °F 81% 29.65 in 10.0 mi South 24.2 mph 34.5 mph 0.02 in   Scattered Clouds
8:52 PM 64.0 °F 59.0 °F 84% 29.64 in 10.0 mi South 20.7 mph 36.8 mph 0.00 in   Partly Cloudy
9:52 PM 63.0 °F 57.9 °F 84% 29.63 in 10.0 mi South 24.2 mph 34.5 mph N/A   Clear
10:52 PM 64.0 °F 59.0 °F 84% 29.62 in 10.0 mi SSW 24.2 mph 43.7 mph N/A   Mostly Cloudy
11:52 PM 64.9 °F 57.9 °F 78% 29.61 in 10.0 mi SSW 26.5 mph 42.6 mph N/A   Overcast